Showing default

IHI-SAT2, 66772

Orbit data source: Space-Track

IHI-SAT2, 66772 is a payload satellite owned by IHI Corp (JP) in SSO that was launched on Fri, 28 Nov 2025 UTC via an FALCON 9 launch vehicle from the Air Force Western Test Range (AFWTR). Payload-class satellites include a variety of spacecraft equipped with specific instruments for various scientific and technological missions. These include communications satellites like Starlink; space stations such as the ISS; scientific satellites like the Hubble; Earth observation satellites from companies like Planet Labs, Umbra, and HawkEye 360; GPS; miniature CubeSats for education and research; and military/defense satellites.

Loading next visibility...
Identifier
66772, 2025-276DL
Orbit
SSO
Country
Flag of JPJP / JPN
Related business
Manufacturer
NanoAvionics
Mission
Operational Commercial Communications
Bus & Motor
CUBESAT 6U, Unknown motor
Mass
12 kg wet, 12 kg dry
Launch date (UTC)
2025-11-28 (4 months ago)
Launch vehicle
FALCON 9
Launch site
Air Force Western Test Range (AFWTR)
Object type
Payload
Rocket body
Debris
Shape & HBR
Box, 0.1 m
Radar Cross Section
0.055 m²

Expand to show TLE details & history
Last TLE update: 9 hours ago

TLE from 9 hours ago
0 IHI-SAT2
1 66772U 25276DL  26095.45157982  .00008686  00000-0  39966-3 0  9997
2 66772  97.4264 170.5424 0002996 106.0012 254.1554 15.20563419 19395
Epoch: 2026-04-05T10:50Z
TLE epoch observation values (Epoch: 2026-04-05T10:50:16.496Z)
Latitude
0.00002°
Longitude
174.21685°
Altitude
507.794 km
Speed
7.61 km/s
True Right ascension
11h 22m 10s
True Declination
0° 00' 00"
Sunlit
Object was in full shadow at epoch
Visualization orbit readout
Latitude
Unknown
Longitude
Unknown
Altitude
Unknown
Speed
Unknown
Apparent Right ascension
Unknown
Apparent Declination
Unknown
Sunlit
N/A
Visualization observer readout
Local Sidereal Time
01:44:57
Azimuth
Unknown
Elevation
Unknown
Doppler factor
Unknown
Orbital elements
Apogee altitude
503.167 km
Perigee altitude
499.045 km
Semi-major axis
6,879.243 km
Eccentricity
0.0003
Inclination
97.4264°
RAAN
170.5424°
Arg. of periapsis
106.0012°
True anomaly
254.12238°
Mean anomaly
254.1554°
Eccentric anomaly
254.13889°
Mean motion
3.80393 °/min
Orbital period
94.64 mins
BSTAR
0.00039966
Loading maneuver chart data...
Computing Atmospheric mass density...
Loading historical data...
Loading historical data...
Loading historical data...
Loading historical data...
Loading historical data...
Loading historical data...
Loading historical data...

Documentation

Showing up to 5 results
|